Home > Weather > Astana > Past weeks

Flag for Kazakhstan Weather for the Past 2 Weeks in Astana, Kazakhstan

Now
41 °F

Clear.


Feels Like: 41 °F
Forecast: 31 / 66 °F
Wind: No wind

Location: Astana

Current Time: May 6, 2016 at 3:06:48 AM

Latest Report: May 6, 2016 at 2:30 AM


Visibility: 4 mi

Pressure: 30.01 "Hg

Humidity: 57%

Dew Point: 27 °F

Location of AstanaLocation

Historic Weather in Astana — Graph

°F

Astana Temperature Yesterday

Maximum temperature yesterday: 59 °F (at 2:30 PM)
Minimum temperature yesterday: 41 °F (at 5:00 AM)
Average temperature yesterday: 51 °F

High & Low Weather Summary for the Past Weeks

 TemperatureHumidityPressure
High72 °F (Apr 21, 1:30 PM)100% (Apr 21, 7:00 AM)30.42 "Hg (Apr 21, 7:00 AM)
Low30 °F (May 3, 5:30 AM)16% (Apr 25, 5:30 PM)29.80 "Hg (Apr 21, 4:00 PM)
Average50 °F53%30.08 "Hg
* Reported Apr 21 2:00 AM — May 6 2:00 AM, Astana, Weather by CustomWeather, © 2016

Note: Actual official high and low records may vary slightly from our data, if they occured in-between our weather recording intervals... More about our weather records

Advertising

Astana Weather History for the Previous 24 Hours

Scroll right to see more
 ConditionsComfort  
Time TempWeatherWind HumidityBarometerVisibility
2:00 AM
Fri, May 6
43 °FClear.1 mph57%30.01 "Hg4 mi
1:30 AM43 °FClear.1 mph61%30.01 "Hg10 mi
1:00 AM43 °FClear.3 mph61%30.01 "Hg10 mi
12:30 AM43 °FClear.3 mph53%30.01 "Hg10 mi
12:00 AM46 °FClear.3 mph40%30.01 "Hg10 mi
11:30 PM
Thu, May 5
46 °FClear.3 mph34%30.01 "Hg10 mi
11:00 PM46 °FClear.3 mph32%30.01 "Hg10 mi
10:30 PM50 °FClear.No wind25%29.98 "Hg10 mi
10:00 PM52 °FClear.1 mph24%29.98 "Hg10 mi
9:30 PM52 °FSunny.6 mph24%29.98 "Hg10 mi
9:00 PM52 °FSunny.6 mph26%29.98 "Hg10 mi
8:30 PM54 °FSunny.6 mph26%29.98 "Hg10 mi
8:00 PM57 °FSunny.8 mph21%29.95 "Hg10 mi
7:30 PM55 °FSunny.6 mph23%29.95 "Hg10 mi
7:00 PM57 °FPassing clouds.8 mph17%29.95 "HgN/A
6:30 PM59 °FPartly sunny.6 mph17%29.95 "HgN/A
6:00 PM59 °FPartly sunny.10 mph25%29.92 "HgN/A
5:30 PM59 °FPartly sunny.8 mph23%29.92 "HgN/A
5:00 PM59 °FPartly sunny.10 mph23%29.92 "HgN/A
4:30 PM59 °FPartly sunny.8 mph27%29.92 "HgN/A
4:00 PM59 °FPartly sunny.10 mph21%29.92 "HgN/A
3:30 PM59 °FPartly sunny.6 mph23%29.92 "HgN/A
3:00 PM59 °FPartly sunny.8 mph23%29.92 "HgN/A
2:30 PM59 °FPartly sunny.8 mph21%29.92 "HgN/A
2:00 PM57 °FPartly sunny.3 mph21%29.92 "HgN/A
1:30 PM57 °FPartly sunny.10 mph23%29.92 "HgN/A
1:00 PM57 °FSunny.8 mph25%29.92 "Hg10 mi
12:30 PM57 °FPassing clouds.10 mph25%29.95 "HgN/A
12:00 PM55 °FPartly sunny.10 mph26%29.95 "HgN/A
11:30 AM55 °FPartly sunny.13 mph31%29.95 "HgN/A
11:00 AM55 °FPartly sunny.10 mph28%29.95 "HgN/A
10:30 AM52 °FPartly sunny.8 mph38%29.95 "HgN/A
10:00 AM50 °FPartly sunny.8 mph35%29.95 "HgN/A
9:30 AM50 °FPartly sunny.8 mph40%29.95 "HgN/A
9:00 AM48 °FPartly sunny.8 mph40%29.95 "HgN/A
8:30 AM46 °FPartly sunny.10 mph46%29.95 "HgN/A
8:00 AM46 °FSunny.13 mph43%29.95 "Hg10 mi
7:30 AM46 °FSunny.13 mph46%29.95 "Hg10 mi
7:00 AM45 °FSunny.10 mph42%29.95 "Hg10 mi
6:30 AM41 °FClear.13 mph53%29.92 "Hg10 mi
6:00 AM41 °FClear.10 mph49%29.92 "Hg10 mi
5:30 AM43 °FClear.10 mph46%29.92 "Hg10 mi
5:00 AM41 °FClear.10 mph45%29.95 "Hg10 mi
4:30 AM43 °FClear.13 mph42%29.95 "Hg10 mi
4:00 AM43 °FClear.13 mph42%29.95 "Hg10 mi
3:30 AM45 °FClear.13 mph42%29.95 "Hg10 mi
3:00 AM45 °FClear.13 mph42%29.95 "Hg10 mi
Weather by CustomWeather, © 2016

See weather overviewHow to use our weather pages